TimeEDT,TemperatureF,Dew PointF,Humidity,Sea Level PressureIn,VisibilityMPH,Wind Direction,Wind SpeedMPH,Gust SpeedMPH,PrecipitationIn,Events,Conditions,WindDirDegrees,DateUTC
12:15 AM,59.4,50.9,74,30.43,10.0,Calm,Calm,-,N/A,,Clear,0,2013-08-25 04:15:00
12:35 AM,60.3,50.9,71,30.42,10.0,Calm,Calm,-,N/A,,Clear,0,2013-08-25 04:35:00
12:55 AM,59.0,50.9,74,30.42,10.0,Calm,Calm,-,N/A,,Clear,0,2013-08-25 04:55:00
1:15 AM,59.0,50.9,74,30.41,10.0,Calm,Calm,-,N/A,,Clear,0,2013-08-25 05:15:00
1:35 AM,56.8,51.1,81,30.42,10.0,Calm,Calm,-,N/A,,Clear,0,2013-08-25 05:35:00
1:55 AM,56.3,51.3,83,30.42,10.0,Calm,Calm,-,N/A,,Clear,0,2013-08-25 05:55:00
2:15 AM,58.1,50.9,77,30.41,10.0,Calm,Calm,-,N/A,,Clear,0,2013-08-25 06:15:00
2:35 AM,58.3,50.9,76,30.41,10.0,Calm,Calm,-,N/A,,Clear,0,2013-08-25 06:35:00
2:55 AM,55.4,52.2,89,30.40,10.0,Calm,Calm,-,N/A,,Clear,0,2013-08-25 06:55:00
3:15 AM,57.2,52.0,83,30.40,10.0,Calm,Calm,-,N/A,,Clear,0,2013-08-25 07:15:00
3:35 AM,54.9,51.6,89,30.41,10.0,Calm,Calm,-,N/A,,Clear,0,2013-08-25 07:35:00
3:55 AM,55.8,52.0,87,30.40,10.0,Calm,Calm,-,N/A,,Clear,0,2013-08-25 07:55:00
4:15 AM,54.3,51.8,91,30.41,10.0,Calm,Calm,-,N/A,,Clear,0,2013-08-25 08:15:00
4:35 AM,55.0,52.2,90,30.40,10.0,Calm,Calm,-,N/A,,Clear,0,2013-08-25 08:35:00
4:55 AM,55.2,52.2,89,30.41,10.0,Calm,Calm,-,N/A,,Clear,0,2013-08-25 08:55:00
5:15 AM,54.0,51.6,92,30.42,10.0,Calm,Calm,-,N/A,,Scattered Clouds,0,2013-08-25 09:15:00
5:35 AM,54.7,52.2,91,30.42,10.0,Calm,Calm,-,N/A,,Scattered Clouds,0,2013-08-25 09:35:00
5:55 AM,54.5,51.6,90,30.42,10.0,Calm,Calm,-,N/A,,Scattered Clouds,0,2013-08-25 09:55:00
6:15 AM,54.1,52.0,92,30.42,10.0,Calm,Calm,-,N/A,,Scattered Clouds,0,2013-08-25 10:15:00
6:35 AM,52.7,50.7,93,30.44,10.0,Calm,Calm,-,N/A,,Mostly Cloudy,0,2013-08-25 10:35:00
6:55 AM,52.2,50.4,94,30.44,4.0,Calm,Calm,-,N/A,,Scattered Clouds,0,2013-08-25 10:55:00
7:15 AM,51.8,50.0,94,30.46,7.0,Calm,Calm,-,N/A,,Mostly Cloudy,0,2013-08-25 11:15:00
7:35 AM,53.4,51.6,94,30.47,10.0,Calm,Calm,-,N/A,,Overcast,0,2013-08-25 11:35:00
7:55 AM,55.9,52.9,89,30.47,10.0,Calm,Calm,-,N/A,,Overcast,0,2013-08-25 11:55:00
8:15 AM,55.2,53.1,92,30.48,10.0,Calm,Calm,-,N/A,,Scattered Clouds,0,2013-08-25 12:15:00
8:35 AM,56.8,53.1,87,30.48,10.0,Calm,Calm,-,N/A,,Scattered Clouds,0,2013-08-25 12:35:00
8:55 AM,58.1,55.0,90,30.48,10.0,Calm,Calm,-,N/A,,Scattered Clouds,0,2013-08-25 12:55:00
9:15 AM,58.6,55.8,90,30.48,10.0,Calm,Calm,-,N/A,,Clear,0,2013-08-25 13:15:00
9:35 AM,60.3,56.3,87,30.48,10.0,Calm,Calm,-,N/A,,Clear,0,2013-08-25 13:35:00
9:55 AM,61.9,56.1,81,30.48,10.0,Calm,Calm,-,N/A,,Clear,0,2013-08-25 13:55:00
10:15 AM,63.1,56.8,80,30.49,10.0,Calm,Calm,-,N/A,,Clear,0,2013-08-25 14:15:00
10:35 AM,63.7,54.7,72,30.49,10.0,East,4.6,-,N/A,,Clear,90,2013-08-25 14:35:00
10:55 AM,65.1,52.2,63,30.48,10.0,SSE,3.5,-,N/A,,Scattered Clouds,160,2013-08-25 14:55:00
11:15 AM,66.2,51.1,58,30.47,10.0,South,4.6,-,N/A,,Scattered Clouds,180,2013-08-25 15:15:00
11:35 AM,66.7,52.2,59,30.47,10.0,ESE,6.9,-,N/A,,Scattered Clouds,110,2013-08-25 15:35:00
11:55 AM,67.8,50.4,54,30.47,10.0,SSE,3.5,-,N/A,,Mostly Cloudy,160,2013-08-25 15:55:00
12:15 PM,68.0,50.9,54,30.47,10.0,East,3.5,-,N/A,,Scattered Clouds,100,2013-08-25 16:15:00
12:35 PM,68.7,51.6,54,30.47,10.0,SE,3.5,-,N/A,,Scattered Clouds,130,2013-08-25 16:35:00
12:55 PM,67.3,49.3,52,30.46,10.0,SE,3.5,-,N/A,,Scattered Clouds,140,2013-08-25 16:55:00
1:15 PM,67.8,48.6,50,30.46,10.0,Calm,Calm,-,N/A,,Clear,0,2013-08-25 17:15:00
1:35 PM,70.2,49.5,48,30.45,10.0,ESE,4.6,-,N/A,,Scattered Clouds,110,2013-08-25 17:35:00
1:55 PM,68.9,49.3,50,30.45,10.0,Calm,Calm,-,N/A,,Clear,0,2013-08-25 17:55:00
2:15 PM,69.8,51.6,52,30.45,10.0,SE,3.5,-,N/A,,Mostly Cloudy,140,2013-08-25 18:15:00
2:35 PM,70.3,52.9,54,30.44,10.0,Calm,Calm,-,N/A,,Mostly Cloudy,0,2013-08-25 18:35:00
2:55 PM,68.5,53.6,59,30.43,10.0,ESE,9.2,-,N/A,,Overcast,110,2013-08-25 18:55:00
3:15 PM,68.2,53.4,59,30.43,10.0,ESE,5.8,-,N/A,,Scattered Clouds,120,2013-08-25 19:15:00
3:35 PM,68.9,54.0,59,30.42,10.0,SE,3.5,-,N/A,,Clear,130,2013-08-25 19:35:00
3:55 PM,69.3,52.2,54,30.41,10.0,East,3.5,-,N/A,,Clear,100,2013-08-25 19:55:00
4:15 PM,70.2,53.4,55,30.41,10.0,ESE,4.6,-,N/A,,Mostly Cloudy,120,2013-08-25 20:15:00
4:35 PM,67.6,54.0,61,30.41,10.0,ESE,6.9,-,N/A,,Overcast,110,2013-08-25 20:35:00
4:55 PM,67.8,53.6,60,30.41,10.0,ESE,4.6,-,N/A,,Scattered Clouds,120,2013-08-25 20:55:00
5:15 PM,68.5,52.7,57,30.41,10.0,Calm,Calm,-,N/A,,Scattered Clouds,0,2013-08-25 21:15:00
5:35 PM,67.3,53.1,60,30.40,10.0,ESE,6.9,-,N/A,,Mostly Cloudy,110,2013-08-25 21:35:00
5:55 PM,66.0,52.5,62,30.41,10.0,ESE,3.5,-,N/A,,Mostly Cloudy,110,2013-08-25 21:55:00
6:15 PM,65.3,53.1,65,30.41,10.0,ESE,3.5,-,N/A,,Scattered Clouds,120,2013-08-25 22:15:00
6:35 PM,66.2,52.0,60,30.41,10.0,SE,3.5,-,N/A,,Clear,130,2013-08-25 22:35:00
6:55 PM,65.5,52.9,64,30.40,10.0,Calm,Calm,-,N/A,,Clear,0,2013-08-25 22:55:00
7:15 PM,64.8,52.5,64,30.40,10.0,SE,3.5,-,N/A,,Clear,140,2013-08-25 23:15:00
7:35 PM,63.9,52.7,67,30.40,10.0,Calm,Calm,-,N/A,,Clear,0,2013-08-25 23:35:00
7:55 PM,63.5,52.7,68,30.40,10.0,Calm,Calm,-,N/A,,Clear,0,2013-08-25 23:55:00
8:15 PM,62.6,52.9,70,30.41,10.0,Calm,Calm,-,N/A,,Clear,0,2013-08-26 00:15:00
8:35 PM,62.6,52.9,70,30.40,7.0,Calm,Calm,-,N/A,,Scattered Clouds,0,2013-08-26 00:35:00
8:55 PM,62.4,52.7,70,30.41,10.0,Calm,Calm,-,N/A,,Overcast,0,2013-08-26 00:55:00
9:15 PM,62.8,52.7,70,30.42,10.0,Calm,Calm,-,N/A,,Mostly Cloudy,0,2013-08-26 01:15:00
9:35 PM,61.7,53.1,73,30.42,10.0,Calm,Calm,-,N/A,,Overcast,0,2013-08-26 01:35:00
9:55 PM,61.0,53.4,76,30.42,10.0,Calm,Calm,-,N/A,,Mostly Cloudy,0,2013-08-26 01:55:00
10:15 PM,61.5,52.3,72,30.43,10.0,Calm,Calm,-,N/A,,Scattered Clouds,0,2013-08-26 02:15:00
10:35 PM,60.8,52.9,75,30.43,10.0,Calm,Calm,-,N/A,,Clear,0,2013-08-26 02:35:00
10:55 PM,59.4,53.2,80,30.43,10.0,Calm,Calm,-,N/A,,Clear,0,2013-08-26 02:55:00
11:15 PM,57.4,54.1,89,30.43,10.0,Calm,Calm,-,N/A,,Clear,0,2013-08-26 03:15:00
11:35 PM,58.6,51.8,78,30.43,10.0,Calm,Calm,-,N/A,,Clear,0,2013-08-26 03:35:00
11:55 PM,58.5,52.0,79,30.43,10.0,Calm,Calm,-,N/A,,Clear,0,2013-08-26 03:55:00